, FL

(GMT )
Whiting Fld NAS

Weather History for KNSE - March, 2013

Change the Weather History Date:

Saturday, March 9, 2013

  Actual Average Record
Temperature  
Mean Temperature 56 °F -  
Max Temperature 72 °F 67 °F 81 °F (1999)
Min Temperature 41 °F 47 °F 39 °F (1998)
Degree Days  
Heating Degree Days 8    
Growing Degree Days 6 (Base 50)    
Moisture  
Dew Point 43 °F    
Average Humidity 60    
Maximum Humidity 89    
Minimum Humidity 28    
Precipitation  
Precipitation 0.00 in - - ()
Sea Level Pressure  
Sea Level Pressure 30.14 in    
Wind  
Wind Speed 6 mph (SE)    
Max Wind Speed 14 mph    
Max Gust Speed 23 mph    
Visibility 6 miles    
Events Rain    
Averages and records for this station are not official NWS values.
T = Trace of Precipitation, MM = Missing Value Source: NWS Daily Summary

Daily Weather History Graph

Daily Weather History Graph

Search for Another Location

Airport or City:

Trip Planner

Search our weather history database for the weather conditions in past years. The results will help you decide how hot, cold, wet, or windy it might be!

Date:

Astronomy

Mar. 09, 2013 Rise Set
Actual Time 6:04 AM CST 5:52 PM CST
Civil Twilight 5:40 AM CST 6:16 PM CST
Nautical Twilight 5:12 AM CST 6:44 PM CST
Astronomical Twilight 4:45 AM CST 7:12 PM CST
Moon 4:21 AM CST (3/9) 3:59 PM CST (3/9)
Length of Visible Light 12h 35m
Length of Day
11h 47m
Waning Crescent, 5% of the Moon is Illuminated
Mar 9
Waning Crescent
Mar 11
New
Mar 19
First Quarter
Mar 27
Full
Apr 2
Last Quarter

Hourly Weather History & Observations

Time (CST) Temp. Windchill Dew Point Humidity Pressure Visibility Wind Dir Wind Speed Gust Speed Precip Events Conditions
12:56 AM 45.0 °F - 39.9 °F 82% 30.16 in 7.0 mi Calm Calm - 0.00 in Rain Light Rain
1:56 AM 44.1 °F - 39.9 °F 85% 30.15 in 6.0 mi Calm Calm - 0.00 in   Clear
2:56 AM 44.1 °F - 39.9 °F 85% 30.14 in 6.0 mi Calm Calm - N/A   Clear
3:56 AM 41.0 °F 39.0 °F 37.9 °F 89% 30.13 in 4.0 mi East 3.5 mph - N/A   Clear
4:56 AM 45.0 °F 41.8 °F 41.0 °F 86% 30.13 in 6.0 mi East 5.8 mph - N/A   Clear
5:56 AM 48.0 °F - 41.0 °F 77% 30.14 in 8.0 mi East 5.8 mph - N/A   Clear
6:56 AM 48.9 °F - 41.0 °F 74% 30.16 in 8.0 mi East 6.9 mph - N/A   Mostly Cloudy
7:56 AM 55.0 °F - 41.0 °F 59% 30.19 in 8.0 mi East 6.9 mph - N/A   Mostly Cloudy
8:56 AM 63.0 °F - 42.1 °F 46% 30.19 in 8.0 mi ESE 8.1 mph - N/A   Mostly Cloudy
9:56 AM 68.0 °F - 36.0 °F 31% 30.19 in 8.0 mi East 12.7 mph - N/A   Mostly Cloudy
10:56 AM 70.0 °F - 35.1 °F 28% 30.18 in 8.0 mi East 12.7 mph - N/A   Mostly Cloudy
11:56 AM 72.0 °F - 39.9 °F 31% 30.17 in 5.0 mi SE 13.8 mph 20.7 mph N/A   Smoke
12:56 PM 69.1 °F - 42.1 °F 38% 30.14 in 6.0 mi SSE 13.8 mph 23.0 mph N/A   Smoke
1:49 PM 68.0 °F - 46.4 °F 46% 30.19 in 3.0 mi SSE 12.7 mph - N/A   Smoke
1:56 PM 68.0 °F - 46.9 °F 47% 30.15 in 3.0 mi SSE 13.8 mph - N/A   Smoke
2:04 PM 66.2 °F - 48.2 °F 52% 30.19 in 2.0 mi SSE 11.5 mph - N/A   Smoke
2:56 PM 66.0 °F - 46.9 °F 50% 30.15 in 2.0 mi SSE 11.5 mph - N/A   Smoke
3:26 PM 66.2 °F - 46.4 °F 49% 30.17 in 4.0 mi SE 13.8 mph - N/A   Smoke
3:56 PM 64.9 °F - 44.1 °F 47% 30.14 in 6.0 mi SE 10.4 mph - N/A   Smoke
4:56 PM 63.0 °F - 44.1 °F 50% 30.14 in 7.0 mi SSE 10.4 mph - N/A   Clear
5:56 PM 60.1 °F - 41.0 °F 49% 30.13 in 8.0 mi South 5.8 mph - N/A   Clear
6:56 PM 57.9 °F - 44.1 °F 60% 30.12 in 9.0 mi SSE 8.1 mph - N/A   Clear
7:56 PM 59.0 °F - 46.9 °F 64% 30.10 in 9.0 mi SSE 10.4 mph - N/A   Clear
8:56 PM 57.0 °F - 48.0 °F 72% 30.11 in 8.0 mi SSE 8.1 mph - N/A   Clear
9:56 PM 55.0 °F - 46.9 °F 74% 30.09 in 7.0 mi ESE 5.8 mph - N/A   Clear
10:56 PM 54.0 °F - 45.0 °F 72% 30.06 in 8.0 mi ESE 4.6 mph - N/A   Clear
11:56 PM 53.1 °F - 43.0 °F 69% 30.06 in 9.0 mi Calm Calm - N/A   Clear